Location: Sternwarte auf dem Internationalen Platz Vogelsang IP
(50.5721°N, 6.4398°E)
Time: 21:44:13
(UTC+01:00)

Tiangong - Visible Passes

Search period start: 10 November 2025 00:00
Search period end: 20 November 2025 00:00
Orbit: 382 x 389 km, 41.5° (Epoch: 08 November)

Date Brightness Start Highest point End Pass type
(mag) Time Alt. Az. Time Alt. Az. Time Alt. Az.
10 Nov 0.5 17:52:34 10° SW 17:54:32 15° S 17:56:31 10° SSE visible
11 Nov 0.8 18:30:25 10° SW 18:31:19 11° SSW 18:32:12 10° S visible
12 Nov 0.7 17:30:19 10° SW 17:31:58 13° SSW 17:33:37 10° SSE visible
